1486119600.03,44372,10.44,72754.5,-1.69,-39.85,-39.91,0,*5D
1486119601.3,44373,10.44,72744.3,-1.67,-40.09,-40.21,0,*5D
1486119602.55,44374,10.44,72736.5,-1.65,-40.47,-40.79,0,*5F
1486119603.77,44375,10.44,72738.3,-1.67,-40.91,-41.11,0,*58
1486119604.99,44376,10.44,72744.3,-1.67,-41.03,-41.11,0,*51
1486119606.2,44377,10.44,72746.5,-1.67,-40.47,-40.53,0,*56
1486119607.43,44378,10.5,72754.0,-1.67,-40.53,-40.85,0,*57
1486119608.67,44379,10.5,72744.0,-1.67,-41.67,-41.87,0,*53
1486119609.91,44380,10.44,72734.0,-1.67,-41.73,-42.05,0,*59
1486119611.12,44381,10.44,72742.3,-1.67,-40.35,-40.53,0,*5A
1486119612.35,44382,10.44,72750.0,-1.67,-39.53,-39.85,0,*52
1486119613.57,44383,10.5,72756.5,-1.67,-39.29,-39.47,0,*50
1486119614.83,44384,10.44,72750.5,-1.65,-39.97,-40.15,0,*59
1486119616.1,44385,10.44,72744.0,-1.63,-40.79,-40.97,0,*5A
1486119617.31,44386,10.5,72762.8,-1.63,-41.49,-41.73,0,*50
1486119618.54,44387,10.44,72762.8,-1.63,-41.49,-41.81,0,*5C
1486119619.81,44388,10.44,72762.3,-1.67,-41.93,-42.31,0,*58
1486119621.04,44389,10.44,72766.0,-1.65,-41.87,-42.25,0,*5B
1486119622.28,44390,10.5,72770.5,-1.67,-41.93,-42.13,0,*51
1486119623.49,44391,10.5,72768.8,-1.67,-41.87,-42.13,0,*55
1486119624.7,44392,10.5,72766.0,-1.67,-41.61,-41.61,0,*58
1486119625.93,44393,10.44,72770.0,-1.67,-41.11,-41.23,0,*58
1486119627.13,44394,10.5,72774.0,-1.67,-40.53,-40.65,0,*5B
1486119628.37,44395,10.44,72774.5,-1.69,-40.47,-40.65,0,*51
1486119629.6,44396,10.5,72768.5,-1.69,-40.65,-40.91,0,*59
1486119630.83,44397,10.5,72764.3,-1.67,-40.53,-40.85,0,*56
1486119632.1,44398,10.44,72774.0,-1.67,-40.09,-40.29,0,*50
1486119633.31,44399,10.44,72760.3,-1.67,-40.65,-40.91,0,*58
1486119634.52,44400,10.44,72758.3,-1.67,-40.47,-40.53,0,*51
1486119635.73,44401,10.44,72756.8,-1.67,-40.65,-41.11,0,*57
1486119636.96,44402,10.5,72754.0,-1.67,-41.29,-41.67,0,*5C
1486119638.18,44403,10.44,72754.8,-1.67,-41.61,-41.87,0,*5F
1486119639.39,44404,10.44,72758.5,-1.67,-41.49,-41.87,0,*52
1486119640.65,44405,10.44,72748.0,-1.67,-41.93,-42.45,0,*59
1486119641.88,44406,10.5,72756.8,-1.69,-41.87,-42.13,0,*52
1486119643.17,44407,10.5,72764.0,-1.69,-42.05,-42.31,0,*5A
1486119644.43,44408,10.5,72760.8,-1.69,-42.05,-42.51,0,*53
1486119645.64,44409,10.44,72750.5,-1.71,-41.73,-41.99,0,*5E
1486119646.9,44410,10.44,72748.0,-1.69,-41.67,-41.87,0,*55
1486119648.11,44411,10.5,72752.8,-1.71,-41.49,-41.73,0,*5A
1486119649.35,44412,10.5,72758.5,-1.69,-41.41,-41.49,0,*51
1486119650.58,44413,10.5,72762.3,-1.71,-41.93,-42.13,0,*5A
1486119651.84,44414,10.44,72764.8,-1.73,-42.69,-42.89,0,*5A
1486119653.07,44415,10.44,72752.8,-1.73,-41.73,-41.73,0,*55
1486119654.29,44416,10.5,72750.0,-1.73,-41.17,-41.49,0,*5D
1486119655.55,44417,10.44,72746.0,-1.73,-41.29,-41.55,0,*5C
1486119656.79,44418,10.5,72744.5,-1.75,-41.17,-41.35,0,*5E
1486119658.02,44419,10.5,72746.0,-1.73,-40.91,-41.11,0,*50
1486119659.3,44420,10.44,72726.3,-1.73,-40.59,-40.79,0,*51
1486119660.59,44421,10.44,72708.8,-1.73,-39.41,-39.79,0,*59
1486119661.87,44422,10.44,72706.0,-1.69,-39.15,-39.53,0,*58
1486119663.13,44423,10.5,72732.0,-1.69,-39.09,-39.15,0,*56
1486119664.43,44424,10.44,72744.0,-1.69,-39.15,-40.09,0,*5F
1486119665.69,44425,10.44,72734.5,-1.69,-41.67,-41.87,0,*53
1486119666.95,44426,10.5,72746.3,-1.71,-41.81,-41.93,0,*54
1486119668.22,44427,10.5,72740.3,-1.69,-40.85,-41.03,0,*50
1486119669.45,44428,10.5,72754.5,-1.71,-41.29,-41.55,0,*52
1486119670.72,44429,10.44,72748.3,-1.69,-41.03,-41.23,0,*53
1486119671.98,44430,10.5,72744.3,-1.69,-41.49,-41.67,0,*55
1486119673.22,44431,10.5,72732.8,-1.69,-40.91,-41.11,0,*51
1486119674.49,44432,10.5,72730.8,-1.71,-39.71,-39.71,0,*52
1486119675.73,44433,10.5,72748.0,-1.71,-39.91,-39.97,0,*55
1486119676.99,44434,10.5,72748.8,-1.69,-39.09,-39.29,0,*5F
1486119678.23,44435,10.44,72750.0,-1.69,-39.09,-39.09,0,*5C
1486119679.49,44436,10.44,72764.8,-1.65,-38.49,-38.73,0,*5A
1486119680.77,44437,10.5,72762.5,-1.65,-40.29,-40.59,0,*55
1486119681.98,44438,10.44,72750.8,-1.63,-41.29,-41.49,0,*5D
1486119683.21,44439,10.5,72744.5,-1.63,-40.97,-41.29,0,*5E
1486119684.48,44440,10.5,72746.0,-1.63,-39.15,-39.23,0,*51
1486119685.72,44441,10.44,72746.5,-1.63,-38.79,-38.97,0,*55
1486119686.97,44442,10.5,72768.3,-1.63,-39.03,-39.23,0,*54
1486119688.27,44443,10.44,72756.8,-1.61,-39.79,-40.09,0,*5C
1486119689.53,44444,10.44,72752.5,-1.61,-41.81,-42.13,0,*5A
1486119690.77,44445,10.44,72758.3,-1.61,-41.29,-41.73,0,*5C
1486119692.01,44446,10.5,72764.3,-1.61,-42.13,-42.51,0,*56
1486119693.27,44447,10.5,72762.8,-1.63,-42.19,-42.57,0,*59
1486119694.53,44448,10.44,72756.8,-1.63,-41.35,-41.81,0,*53
1486119695.79,44449,10.5,72770.3,-1.65,-41.55,-41.87,0,*54
1486119697.01,44450,10.5,72760.5,-1.67,-42.51,-42.63,0,*50
1486119698.24,44451,10.5,72760.3,-1.67,-41.73,-41.93,0,*5E
1486119699.48,44452,10.44,72754.0,-1.67,-41.23,-41.41,0,*57
1486119700.71,44453,10.5,72750.8,-1.67,-41.87,-42.05,0,*5B
1486119701.95,44454,10.5,72764.8,-1.67,-41.61,-41.93,0,*58
1486119703.23,44455,10.44,72758.8,-1.69,-41.67,-41.93,0,*51
1486119704.46,44456,10.44,72760.8,-1.71,-41.93,-42.37,0,*5D
1486119705.7,44457,10.5,72752.0,-1.69,-41.11,-41.41,0,*5D
1486119706.93,44458,10.5,72752.8,-1.71,-40.97,-41.29,0,*5A
1486119708.17,44459,10.5,72750.3,-1.69,-41.03,-41.29,0,*5E
1486119709.43,44460,10.5,72746.5,-1.69,-41.87,-42.05,0,*55
1486119710.65,44461,10.5,72750.5,-1.71,-43.01,-43.41,0,*50
1486119711.9,44462,10.5,72748.0,-1.73,-43.01,-43.35,0,*52
1486119713.13,44463,10.44,72740.3,-1.73,-42.89,-43.01,0,*55
1486119714.37,44464,10.5,72754.8,-1.75,-42.57,-42.75,0,*55
1486119715.63,44465,10.44,72736.0,-1.77,-41.99,-42.19,0,*5D
1486119716.89,44466,10.5,72738.3,-1.77,-41.17,-41.35,0,*55
1486119718.14,44467,10.5,72744.0,-1.77,-40.15,-40.15,0,*54
1486119719.38,44468,10.5,72750.0,-1.73,-40.15,-40.35,0,*5D
1486119720.65,44469,10.5,72746.8,-1.75,-41.23,-41.55,0,*59
1486119721.89,44470,10.5,72746.0,-1.75,-41.23,-41.41,0,*54
1486119723.09,44471,10.5,72746.5,-1.75,-41.73,-41.61,0,*52
1486119724.31,44472,10.5,72760.0,-1.75,-41.87,-42.25,0,*59
1486119725.54,44473,10.5,72754.3,-1.75,-41.81,-41.99,0,*5A
1486119726.78,44474,10.5,72746.0,-1.75,-41.99,-42.19,0,*5F
1486119728.04,44475,10.5,72744.0,-1.77,-42.05,-42.37,0,*56
1486119729.28,44476,10.5,72744.0,-1.77,-41.73,-41.99,0,*50
1486119730.53,44477,10.5,72756.5,-1.77,-40.21,-40.15,0,*52
1486119731.82,44478,10.5,72760.5,-1.77,-40.59,-40.59,0,*5A
1486119733.09,44479,10.44,72752.8,-1.75,-40.41,-40.59,0,*50
1486119734.36,44480,10.44,72748.3,-1.75,-40.41,-40.41,0,*5F
1486119735.61,44481,10.5,72754.8,-1.75,-39.29,-39.41,0,*50
1486119736.9,44482,10.44,72754.0,-1.73,-38.79,-38.91,0,*5D
1486119738.13,44483,10.5,72764.8,-1.73,-39.09,-39.35,0,*55
1486119739.4,44484,10.44,72764.0,-1.71,-39.59,-39.71,0,*55
1486119740.66,44485,10.5,72768.8,-1.69,-41.11,-41.35,0,*51
1486119741.88,44486,10.5,72770.3,-1.69,-40.53,-40.73,0,*56
1486119743.17,44487,10.5,72768.8,-1.69,-38.91,-39.15,0,*58
1486119744.4,44488,10.5,72764.3,-1.69,-39.85,-40.03,0,*5A
1486119745.69,44489,10.5,72764.0,-1.65,-40.41,-40.79,0,*5C
1486119746.89,44490,10.5,72764.8,-1.67,-41.29,-41.41,0,*53
1486119748.14,44491,10.5,72764.8,-1.67,-41.49,-41.67,0,*50
1486119749.37,44492,10.5,72760.3,-1.67,-41.61,-41.93,0,*52
1486119750.61,44493,10.5,72758.0,-1.69,-42.25,-42.51,0,*53
1486119751.84,44494,10.5,72754.5,-1.69,-41.73,-42.13,0,*52
1486119753.04,44495,10.44,72754.0,-1.71,-41.73,-42.13,0,*5A
1486119754.25,44496,10.5,72750.5,-1.71,-41.73,-41.99,0,*58
1486119755.49,44497,10.5,72746.3,-1.69,-41.87,-42.13,0,*5A
1486119756.72,44498,10.5,72752.5,-1.71,-41.81,-41.99,0,*5B
1486119757.98,44499,10.5,72744.3,-1.73,-41.67,-42.13,0,*51
1486119759.24,44500,10.5,72752.5,-1.75,-42.19,-42.57,0,*5C
1486119760.48,44501,10.5,72760.5,-1.73,-40.73,-40.91,0,*5D
1486119761.73,44502,10.5,72758.0,-1.73,-40.79,-41.11,0,*5D
1486119763.02,44503,10.5,72746.0,-1.73,-41.35,-41.55,0,*55
1486119764.26,44504,10.5,72756.0,-1.75,-41.49,-41.55,0,*5F
1486119765.52,44505,10.44,72760.3,-1.73,-41.49,-41.55,0,*58
1486119766.73,44506,10.5,72748.0,-1.75,-41.41,-41.61,0,*52
1486119767.98,44507,10.5,72752.3,-1.73,-40.79,-41.11,0,*58
1486119769.24,44508,10.5,72750.3,-1.73,-41.11,-41.55,0,*58
1486119770.45,44509,10.5,72752.3,-1.75,-41.61,-41.99,0,*58
1486119771.68,44510,10.5,72748.3,-1.73,-41.99,-42.37,0,*56
1486119772.92,44511,10.5,72752.3,-1.75,-42.63,-42.95,0,*5F
1486119774.18,44512,10.5,72754.8,-1.75,-41.81,-42.05,0,*5A
1486119775.39,44513,10.5,72752.0,-1.75,-41.41,-41.73,0,*55
1486119776.63,44514,10.5,72754.8,-1.75,-41.17,-41.35,0,*53
1486119777.89,44515,10.5,72752.0,-1.77,-40.85,-41.17,0,*5A
1486119779.16,44516,10.5,72750.8,-1.77,-40.59,-41.03,0,*5D
1486119780.42,44517,10.5,72750.5,-1.77,-41.23,-41.61,0,*54
1486119781.7,44518,10.5,72748.5,-1.77,-40.59,-40.79,0,*5F
1486119782.97,44519,10.5,72748.5,-1.77,-41.23,-41.41,0,*58
1486119784.21,44520,10.5,72756.3,-1.77,-41.41,-41.61,0,*54
1486119785.46,44521,10.5,72758.8,-1.77,-42.05,-42.37,0,*56
1486119786.75,44522,10.5,72750.5,-1.77,-41.81,-41.81,0,*54
1486119788.04,44523,10.5,72738.5,-1.77,-40.97,-41.23,0,*5B
1486119789.3,44524,10.5,72734.0,-1.77,-41.99,-42.19,0,*59
1486119790.59,44525,10.5,72730.5,-1.77,-40.97,-41.35,0,*5A
1486119791.86,44526,10.5,72718.8,-1.77,-41.17,-41.55,0,*56
1486119793.09,44527,10.5,72724.5,-1.81,-41.93,-42.13,0,*53
1486119794.38,44528,10.5,72722.3,-1.77,-40.97,-41.23,0,*50
1486119795.64,44529,10.5,72724.8,-1.77,-41.35,-41.41,0,*5C
1486119796.93,44530,10.5,72728.5,-1.77,-41.81,-42.05,0,*58
1486119798.16,44531,10.5,72722.3,-1.81,-41.99,-42.31,0,*5E
1486119799.43,44532,10.5,72730.5,-1.77,-41.87,-42.19,0,*51
1486119800.64,44533,10.5,72724.3,-1.81,-41.73,-41.87,0,*56
1486119801.87,44534,10.5,72728.3,-1.81,-41.55,-41.87,0,*55
1486119803.09,44535,10.5,72724.8,-1.81,-41.73,-41.93,0,*55
1486119804.3,44536,10.5,72730.5,-1.81,-42.13,-42.37,0,*5E
1486119805.5,44537,10.5,72728.0,-1.81,-41.87,-42.13,0,*57
1486119806.73,44538,10.5,72726.5,-1.81,-41.87,-41.93,0,*53
1486119807.96,44539,10.5,72738.8,-1.81,-41.55,-41.87,0,*58
1486119809.17,44540,10.5,72736.0,-1.81,-41.17,-41.29,0,*54
1486119810.37,44541,10.5,72730.8,-1.81,-41.11,-41.17,0,*5E
1486119811.6,44542,10.5,72728.8,-1.81,-41.11,-41.35,0,*5D
1486119812.87,44543,10.5,72742.5,-1.77,-40.85,-41.03,0,*5C
1486119814.1,44544,10.5,72738.0,-1.81,-41.35,-41.49,0,*56
1486119815.31,44545,10.5,72726.5,-1.81,-41.17,-41.29,0,*51
1486119816.54,44546,10.5,72738.0,-1.81,-40.59,-40.91,0,*5B
1486119817.79,44547,10.5,72738.0,-1.81,-40.59,-40.79,0,*5C
1486119819.05,44548,10.5,72738.3,-1.77,-40.47,-40.79,0,*55
1486119820.34,44549,10.5,72728.8,-1.77,-40.79,-40.97,0,*59
1486119821.63,44550,10.5,72734.0,-1.77,-40.97,-40.97,0,*51
1486119822.92,44551,10.5,72736.3,-1.77,-40.59,-40.79,0,*52
1486119824.21,44552,10.5,72738.0,-1.77,-41.23,-41.55,0,*52
1486119825.47,44553,10.5,72740.5,-1.77,-41.35,-41.61,0,*53
1486119826.74,44554,10.5,72728.3,-1.77,-41.03,-41.23,0,*57
1486119828.01,44555,10.5,72736.3,-1.77,-41.35,-41.61,0,*55
1486119829.27,44556,10.5,72730.0,-1.77,-41.81,-41.99,0,*5E
1486119830.56,44557,10.5,72724.5,-1.77,-42.19,-42.57,0,*5C
1486119831.77,44558,10.5,72738.8,-1.81,-42.51,-42.75,0,*56
1486119832.97,44559,10.5,72724.3,-1.81,-42.13,-42.37,0,*57
1486119834.21,44560,10.5,72740.0,-1.83,-42.13,-42.37,0,*5F
1486119835.5,44561,10.5,72744.3,-1.83,-41.93,-42.19,0,*59
1486119836.72,44562,10.5,72764.8,-1.81,-41.93,-42.13,0,*52
1486119837.99,44563,10.5,72758.8,-1.83,-41.29,-41.67,0,*50
1486119839.25,44564,10.5,72754.0,-1.83,-41.55,-41.87,0,*52
1486119840.48,44565,10.5,72752.3,-1.85,-41.93,-42.25,0,*54
1486119841.73,44566,10.5,72744.8,-1.85,-41.81,-42.19,0,*5B
1486119843.03,44567,10.5,72750.3,-1.83,-41.35,-41.55,0,*58
1486119844.28,44568,10.5,72746.3,-1.83,-40.97,-41.29,0,*55
1486119845.58,44569,10.5,72752.0,-1.83,-41.35,-41.67,0,*57
1486119846.86,44570,10.5,72746.5,-1.83,-41.67,-41.93,0,*53
1486119848.09,44571,10.5,72740.5,-1.85,-41.99,-42.19,0,*54
1486119849.3,44572,10.5,72740.3,-1.85,-41.99,-42.25,0,*58
1486119850.58,44573,10.5,72750.3,-1.83,-41.67,-41.93,0,*50
1486119851.79,44574,10.5,72740.0,-1.85,-42.25,-42.63,0,*58
1486119852.99,44575,10.5,72744.5,-1.85,-41.99,-42.25,0,*5F
1486119854.22,44576,10.5,72740.5,-1.85,-40.65,-40.97,0,*55
1486119855.46,44577,10.5,72740.3,-1.85,-40.41,-40.53,0,*5A
1486119856.69,44578,10.5,72742.8,-1.83,-40.53,-40.73,0,*52
1486119857.94,44579,10.5,72748.5,-1.83,-39.35,-39.41,0,*52
1486119859.2,44580,10.5,72744.0,-1.81,-39.15,-39.29,0,*5A
1486119860.49,44581,10.5,72746.3,-1.77,-39.29,-39.59,0,*5A
1486119861.77,44582,10.5,72752.0,-1.77,-39.97,-39.97,0,*5E
1486119863.01,44583,10.5,72750.8,-1.77,-40.47,-40.65,0,*5F
1486119864.29,44584,10.5,72752.5,-1.77,-40.97,-41.35,0,*51
1486119865.56,44585,10.5,72752.8,-1.77,-41.35,-41.61,0,*58
1486119866.8,44586,10.5,72754.5,-1.75,-41.87,-42.19,0,*5C
1486119868.06,44587,10.5,72752.5,-1.75,-42.05,-42.45,0,*5D
1486119869.32,44588,10.5,72742.5,-1.77,-42.75,-42.95,0,*5A
1486119870.61,44589,10.5,72752.0,-1.77,-42.05,-42.19,0,*58
1486119871.9,44590,10.5,72754.3,-1.77,-40.59,-40.79,0,*5F
1486119873.13,44591,10.5,72754.8,-1.81,-42.51,-42.69,0,*5E
1486119874.36,44592,10.5,72752.0,-1.81,-42.89,-43.09,0,*5F
1486119875.64,44593,10.5,72744.8,-1.83,-42.69,-42.69,0,*55
1486119876.92,44594,10.5,72746.3,-1.83,-41.67,-41.93,0,*59
1486119878.15,44595,10.5,72742.5,-1.83,-41.73,-42.13,0,*56
1486119879.42,44596,10.5,72734.3,-1.83,-41.67,-42.13,0,*50
1486119880.65,44597,10.5,72740.5,-1.85,-40.97,-41.03,0,*5B
1486119881.88,44598,10.5,72740.5,-1.85,-40.53,-40.41,0,*5B
1486119883.13,44599,10.5,72734.5,-1.83,-41.29,-41.55,0,*54
1486119884.34,44600,10.5,72740.3,-1.81,-41.73,-41.87,0,*55
1486119885.6,44601,10.5,72732.3,-1.83,-40.59,-40.91,0,*59
1486119886.88,44602,10.5,72750.5,-1.83,-39.41,-39.53,0,*5D
1486119888.11,44603,10.5,72742.8,-1.81,-38.73,-39.15,0,*5C
1486119889.37,44604,10.5,72736.0,-1.77,-38.61,-39.03,0,*56
1486119890.63,44605,10.5,72746.0,-1.77,-37.63,-38.05,0,*5D
1486119891.86,44606,10.5,72746.0,-1.75,-38.05,-38.67,0,*57
1486119893.15,44607,10.5,72768.0,-1.73,-38.91,-39.59,0,*51
1486119894.38,44608,10.5,72762.8,-1.73,-40.53,-40.91,0,*55
1486119895.61,44609,10.5,72762.8,-1.75,-41.73,-41.81,0,*51
1486119896.87,44610,10.5,72764.8,-1.73,-41.35,-41.73,0,*50
1486119898.13,44611,10.5,72758.5,-1.73,-41.81,-41.99,0,*5A
1486119899.39,44612,10.5,72766.3,-1.73,-41.99,-42.31,0,*51
1486119900.6,44613,10.5,72762.8,-1.75,-41.87,-42.25,0,*5C
1486119901.87,44614,10.5,72762.0,-1.77,-42.19,-42.25,0,*5D
1486119903.13,44615,10.5,72756.5,-1.75,-42.05,-42.45,0,*55
1486119904.39,44616,10.5,72746.0,-1.77,-42.25,-42.57,0,*55
1486119905.6,44617,10.5,72752.3,-1.81,-42.13,-42.51,0,*5E
1486119906.8,44618,10.5,72756.3,-1.81,-40.35,-40.47,0,*52
1486119908.06,44619,10.5,72758.5,-1.77,-39.97,-40.15,0,*5B
1486119909.32,44620,10.5,72762.3,-1.77,-40.65,-40.97,0,*58
1486119910.59,44621,10.5,72754.5,-1.77,-41.41,-41.81,0,*58
1486119911.79,44622,10.5,72752.5,-1.81,-41.17,-41.49,0,*55
1486119913.05,44623,10.5,72740.0,-1.77,-41.61,-41.81,0,*58
1486119914.28,44624,10.5,72734.8,-1.81,-41.87,-42.19,0,*5C
1486119915.51,44625,10.5,72740.0,-1.81,-40.97,-41.11,0,*56
1486119916.78,44626,10.5,72748.5,-1.77,-40.35,-40.41,0,*50
1486119918.0,44627,10.5,72744.0,-1.81,-40.53,-40.59,0,*51
1486119919.29,44628,10.5,72746.0,-1.77,-40.79,-41.23,0,*53
1486119920.56,44629,10.5,72754.8,-1.77,-40.85,-41.03,0,*53
1486119921.82,44630,10.5,72760.8,-1.77,-41.17,-41.23,0,*53
1486119923.11,44631,10.5,72770.3,-1.77,-41.35,-41.55,0,*53
1486119924.35,44632,10.5,72770.5,-1.77,-41.41,-41.61,0,*54
1486119925.64,44633,10.5,72770.3,-1.77,-41.55,-41.81,0,*5E
1486119926.89,44634,10.5,72762.0,-1.81,-42.31,-42.57,0,*59
1486119928.12,44635,10.5,72766.3,-1.81,-42.31,-42.51,0,*5E
1486119929.35,44636,10.5,72770.0,-1.81,-41.29,-41.55,0,*50
1486119930.55,44637,10.5,72768.5,-1.81,-41.11,-41.29,0,*51
1486119931.79,44638,10.5,72764.3,-1.81,-41.35,-41.49,0,*5E
1486119933.02,44639,10.5,72770.8,-1.81,-42.13,-42.31,0,*54
1486119934.26,44640,10.5,72764.0,-1.81,-41.55,-41.73,0,*5E
1486119935.48,44641,10.5,72758.5,-1.81,-41.29,-41.55,0,*50
1486119936.69,44642,10.5,72776.0,-1.81,-41.49,-41.73,0,*51
1486119937.95,44643,10.5,72780.3,-1.83,-40.79,-41.11,0,*54
1486119939.18,44644,10.5,72776.5,-1.81,-40.73,-40.97,0,*54
1486119940.38,44645,10.5,72774.0,-1.81,-40.53,-40.91,0,*51
1486119941.67,44646,10.5,72780.0,-1.77,-40.97,-41.23,0,*5B
1486119942.9,44647,10.5,72768.0,-1.81,-41.17,-41.35,0,*5D
1486119944.13,44648,10.5,72768.0,-1.81,-41.11,-41.35,0,*54
1486119945.33,44649,10.5,72778.3,-1.81,-41.11,-41.49,0,*5E
1486119946.59,44650,10.5,72778.0,-1.81,-40.97,-41.35,0,*52
1486119947.85,44651,10.5,72764.0,-1.77,-40.79,-41.17,0,*5A
1486119949.11,44652,10.5,72750.0,-1.81,-40.09,-39.97,0,*50
1486119950.34,44653,10.5,72742.0,-1.81,-38.35,-38.23,0,*5F
1486119951.55,44654,10.5,72746.0,-1.81,-37.27,-37.75,0,*58
1486119952.75,44655,10.5,72748.5,-1.75,-37.15,-37.45,0,*50
1486119953.99,44656,10.5,72746.5,-1.75,-37.15,-37.81,0,*5B
1486119955.22,44657,10.5,72750.5,-1.73,-37.57,-38.05,0,*59
1486119956.5,44658,10.5,72752.5,-1.73,-37.39,-37.93,0,*5E
1486119957.76,44659,10.5,72766.3,-1.71,-37.39,-37.81,0,*5E
1486119959.05,44660,10.5,72762.0,-1.69,-37.99,-38.67,0,*50
1486119960.31,44661,10.5,72756.0,-1.69,-37.87,-38.67,0,*5E
1486119961.58,44662,10.5,72758.0,-1.65,-37.87,-38.49,0,*5D
1486119962.81,44663,10.5,72764.5,-1.65,-38.61,-39.09,0,*5E
1486119964.09,44664,10.5,72756.5,-1.65,-40.15,-40.59,0,*5E
1486119965.32,44665,10.5,72752.8,-1.65,-40.65,-41.03,0,*56
1486119966.61,44666,10.5,72754.0,-1.65,-40.97,-41.23,0,*5A
1486119967.89,44667,10.5,72744.3,-1.65,-41.35,-41.81,0,*5A
1486119969.12,44668,10.5,72744.0,-1.67,-41.49,-41.93,0,*5F
1486119970.35,44669,10.5,72746.8,-1.65,-41.99,-42.25,0,*5F
1486119971.6,44670,10.5,72738.5,-1.67,-42.13,-42.31,0,*51
1486119972.83,44671,10.5,72730.3,-1.69,-41.87,-42.25,0,*55
1486119974.1,44672,10.5,72732.5,-1.69,-42.31,-42.51,0,*5B
1486119975.36,44673,10.5,72726.5,-1.71,-41.93,-42.31,0,*5E
1486119976.6,44674,10.5,72734.3,-1.71,-41.93,-42.13,0,*59
1486119977.84,44675,10.5,72728.3,-1.71,-42.19,-42.51,0,*5F
1486119979.1,44676,10.5,72736.3,-1.71,-41.93,-42.19,0,*51
1486119980.34,44677,10.5,72736.3,-1.71,-41.81,-41.99,0,*58
1486119981.56,44678,10.5,72742.8,-1.73,-41.29,-41.49,0,*5A
1486119982.82,44679,10.5,72750.3,-1.73,-41.29,-41.55,0,*56
1486119984.08,44680,10.5,72752.3,-1.73,-41.29,-41.67,0,*51
1486119985.29,44681,10.5,72744.8,-1.75,-41.41,-41.73,0,*5D
1486119986.51,44682,10.5,72754.5,-1.75,-41.03,-41.41,0,*59
1486119987.76,44683,10.5,72754.3,-1.73,-41.11,-41.35,0,*5E
1486119989.0,44684,10.5,72752.5,-1.75,-41.41,-41.81,0,*55
1486119990.25,44685,10.5,72762.5,-1.73,-41.29,-41.55,0,*55
1486119991.49,44686,10.5,72770.0,-1.75,-41.35,-41.61,0,*5A
1486119992.75,44687,10.5,72770.3,-1.73,-40.97,-41.17,0,*55
1486119994.01,44688,10.5,72766.0,-1.73,-40.73,-40.97,0,*59
1486119995.23,44689,10.5,72766.5,-1.73,-41.29,-41.49,0,*54
1486119996.46,44690,10.5,72768.0,-1.73,-41.17,-41.49,0,*51
1486119997.69,44691,10.5,72764.0,-1.73,-42.13,-42.37,0,*5D
1486119998.97,44692,10.5,72762.8,-1.73,-42.19,-42.57,0,*52
1486120000.19,44693,10.5,72760.8,-1.75,-42.37,-42.63,0,*5E
1486120001.46,44694,10.5,72760.3,-1.75,-42.19,-42.19,0,*58
1486120002.72,44695,10.5,72764.5,-1.77,-41.61,-41.81,0,*55
1486120003.98,44696,10.5,72762.5,-1.77,-41.55,-41.61,0,*5F
1486120005.27,44697,10.5,72752.5,-1.77,-40.97,-40.85,0,*5A
1486120006.54,44698,10.5,72758.0,-1.77,-41.35,-41.61,0,*57
1486120007.79,44699,10.5,72758.8,-1.81,-41.67,-41.93,0,*55
1486120009.05,44700,10.5,72764.3,-1.77,-41.35,-41.61,0,*57
1486120010.34,44701,10.5,72754.3,-1.77,-41.35,-41.55,0,*51
1486120011.61,44702,10.5,72748.0,-1.77,-42.63,-42.95,0,*5D
1486120012.87,44703,10.5,72748.5,-1.81,-43.09,-43.21,0,*56
1486120014.12,44704,10.5,72766.3,-1.83,-42.89,-43.21,0,*5A
1486120015.39,44705,10.5,72764.0,-1.83,-41.49,-41.67,0,*54
1486120016.65,44706,10.5,72762.0,-1.83,-41.49,-41.55,0,*56
1486120017.91,44707,10.5,72762.8,-1.83,-41.99,-42.31,0,*5B
1486120019.17,44708,10.5,72760.0,-1.81,-41.93,-42.19,0,*56
1486120020.43,44709,10.5,72762.8,-1.83,-41.17,-41.35,0,*54
1486120021.66,44710,10.5,72756.3,-1.85,-41.35,-41.61,0,*5B
1486120022.92,44711,10.5,72756.0,-1.83,-41.73,-41.93,0,*53
1486120024.17,44712,10.5,72758.0,-1.85,-40.59,-40.85,0,*59
1486120025.44,44713,10.5,72760.5,-1.83,-40.73,-40.97,0,*55
1486120026.73,44714,10.5,72750.5,-1.83,-41.67,-42.19,0,*52
1486120027.99,44715,10.5,72744.3,-1.83,-43.09,-43.35,0,*56
1486120029.22,44716,10.5,72742.0,-1.85,-42.83,-43.15,0,*52
1486120030.43,44717,10.5,72744.0,-1.85,-42.37,-42.63,0,*5C
1486120031.66,44718,10.5,72746.8,-1.87,-41.61,-41.73,0,*53
1486120032.95,44719,10.5,72744.0,-1.87,-41.23,-41.55,0,*50
1486120034.18,44720,10.5,72752.8,-1.85,-41.23,-41.41,0,*5D
1486120035.38,44721,10.5,72744.3,-1.85,-41.17,-41.41,0,*5B
1486120036.61,44722,10.5,72738.3,-1.85,-41.35,-41.61,0,*5A
1486120037.91,44723,10.5,72750.8,-1.83,-41.55,-41.67,0,*5D
1486120039.14,44724,10.5,72746.8,-1.83,-41.17,-41.29,0,*56
1486120040.4,44725,10.5,72734.8,-1.85,-40.85,-40.97,0,*5F
1486120041.68,44726,10.5,72724.0,-1.83,-40.29,-40.29,0,*59
1486120042.91,44727,10.5,72704.0,-1.85,-39.85,-39.97,0,*5D
1486120044.16,44728,10.5,72702.3,-1.83,-38.97,-39.29,0,*53
1486120045.42,44729,10.5,72696.8,-1.83,-39.15,-39.35,0,*54
1486120046.68,44730,10.5,72732.5,-1.77,-39.15,-39.47,0,*52
1486120047.94,44731,10.5,72776.0,-1.77,-40.21,-40.65,0,*54
1486120049.24,44732,10.5,72770.8,-1.77,-40.41,-40.85,0,*5F
1486120050.51,44733,10.5,72748.5,-1.77,-42.19,-42.75,0,*5C
1486120051.71,44734,10.5,72744.3,-1.81,-41.11,-41.29,0,*53
1486120052.94,44735,10.5,72748.5,-1.81,-39.97,-40.15,0,*5D
1486120054.19,44736,10.5,72758.8,-1.77,-40.21,-40.35,0,*56
1486120055.46,44737,10.5,72748.0,-1.77,-41.55,-41.73,0,*56
1486120056.73,44738,10.5,72752.3,-1.77,-42.19,-42.63,0,*50
1486120057.96,44739,10.5,72754.0,-1.81,-41.87,-41.93,0,*50
1486120059.16,44740,10.5,72752.8,-1.81,-42.89,-43.15,0,*5F
1486120060.39,44741,10.5,72746.5,-1.81,-41.93,-42.13,0,*51
1486120061.61,44742,10.5,72748.3,-1.81,-41.73,-41.93,0,*57
1486120062.89,44743,10.5,72748.5,-1.83,-41.55,-41.93,0,*50
1486120064.13,44744,10.5,72754.3,-1.83,-41.49,-41.87,0,*5F
1486120065.36,44745,10.5,72748.0,-1.85,-42.05,-42.63,0,*5A
1486120066.61,44746,10.5,72746.3,-1.85,-42.05,-42.45,0,*5D
1486120067.81,44747,10.5,72750.8,-1.85,-41.99,-42.25,0,*5C
1486120069.09,44748,10.5,72746.3,-1.87,-42.19,-42.57,0,*5F
1486120070.37,44749,10.5,72744.8,-1.87,-42.45,-42.83,0,*5E
1486120071.57,44750,10.5,72744.3,-1.89,-41.99,-42.25,0,*56
1486120072.85,44751,10.5,72744.5,-1.87,-41.93,-42.19,0,*5C
1486120074.1,44752,10.5,72750.0,-1.87,-41.61,-41.93,0,*53
1486120075.35,44753,10.5,72748.5,-1.87,-41.61,-41.93,0,*52
1486120076.61,44754,10.5,72756.8,-1.87,-41.61,-41.81,0,*56
1486120077.81,44755,10.5,72754.5,-1.89,-41.61,-41.87,0,*5F
1486120079.04,44756,10.5,72754.8,-1.87,-41.41,-41.73,0,*5B
1486120080.3,44757,10.5,72752.3,-1.87,-41.81,-41.99,0,*52
1486120081.54,44758,10.5,72758.5,-1.89,-42.13,-42.31,0,*5A
1486120082.77,44759,10.5,72750.3,-1.89,-41.67,-41.99,0,*5A
1486120084.0,44760,10.5,72756.3,-1.89,-41.67,-41.99,0,*50
1486120085.21,44761,10.5,72754.0,-1.89,-42.25,-42.51,0,*53
1486120086.42,44762,10.5,72736.8,-1.89,-42.63,-43.01,0,*56
1486120087.63,44763,10.5,72752.5,-1.89,-42.13,-42.25,0,*57
1486120088.91,44764,10.56,72742.8,-1.91,-41.67,-41.93,0,*57
1486120090.16,44765,10.5,72754.5,-1.91,-40.73,-40.79,0,*57
1486120091.39,44766,10.5,72748.0,-1.89,-40.41,-40.65,0,*51
1486120092.6,44767,10.5,72742.0,-1.89,-41.03,-41.41,0,*50
1486120093.86,44768,10.5,72742.8,-1.87,-41.35,-41.73,0,*55
1486120095.06,44769,10.5,72730.3,-1.89,-41.61,-41.99,0,*5F
1486120096.27,44770,10.5,72738.3,-1.89,-41.99,-42.25,0,*54
1486120097.5,44771,10.5,72742.3,-1.91,-42.13,-42.37,0,*5E
1486120098.74,44772,10.5,72746.0,-1.89,-41.99,-42.31,0,*53
1486120100.02,44773,10.5,72744.8,-1.91,-42.19,-42.57,0,*50
1486120101.25,44774,10.5,72742.3,-1.93,-42.31,-42.51,0,*59
1486120102.51,44775,10.5,72748.0,-1.93,-42.69,-43.29,0,*5B
1486120103.72,44776,10.5,72728.3,-1.93,-42.51,-42.75,0,*5B
1486120104.92,44777,10.5,72716.0,-1.93,-41.17,-41.49,0,*57